TimeCET,TemperatureF,Dew PointF,Humidity,Sea Level PressureIn,VisibilityMPH,Wind Direction,Wind SpeedMPH,Gust SpeedMPH,PrecipitationIn,Events,Conditions,WindDirDegrees,DateUTC
12:45 AM,41.0,33.8,76,29.80,-9999.0,East,10.4,-,N/A,,Clear,100,2012-10-31 23:45:00
1:00 AM,42,34,64,29.79,19,East,11.2,,,,Partly Cloudy,100,2012-11-01 00:00:00
1:45 AM,42.8,35.6,76,29.74,-9999.0,East,12.7,-,N/A,,Clear,100,2012-11-01 00:45:00
2:45 AM,42.8,35.6,76,29.71,-9999.0,East,11.5,-,N/A,,Clear,100,2012-11-01 01:45:00
3:45 AM,44.6,35.6,71,29.68,-9999.0,ESE,13.8,-,N/A,,Clear,110,2012-11-01 02:45:00
4:45 AM,44.6,37.4,76,29.65,-9999.0,ESE,11.5,-,N/A,,Clear,110,2012-11-01 03:45:00
5:15 AM,44.6,37.4,76,29.62,-9999.0,ESE,12.7,-,N/A,,Clear,110,2012-11-01 04:15:00
5:45 AM,46.4,39.2,76,29.62,-9999.0,ESE,12.7,-,N/A,,Clear,110,2012-11-01 04:45:00
6:15 AM,46.4,39.2,76,29.59,-9999.0,ESE,12.7,-,N/A,,Clear,110,2012-11-01 05:15:00
6:45 AM,48.2,39.2,71,29.59,-9999.0,ESE,16.1,-,N/A,,Clear,120,2012-11-01 05:45:00
6:57 AM,48.2,41.0,76,29.59,6.2,ESE,18.4,-,N/A,Rain,Light Rain,120,2012-11-01 05:57:00
7:00 AM,47,39,67,29.59,19,ESE,15.7,,,,Partly Cloudy,120,2012-11-01 06:00:00
7:02 AM,48.2,41.0,76,29.59,-9999.0,ESE,18.4,29.9,N/A,,Unknown,120,2012-11-01 06:02:00
7:03 AM,48.2,41.0,76,29.59,6.2,ESE,19.6,-,N/A,Rain,Light Rain,120,2012-11-01 06:03:00
7:15 AM,48.2,41.0,76,29.59,6.2,SE,20.7,-,N/A,Rain,Light Rain,130,2012-11-01 06:15:00
7:45 AM,48.2,42.8,82,29.59,6.2,SE,20.7,-,N/A,Rain,Light Rain,130,2012-11-01 06:45:00
8:15 AM,48.2,46.4,93,29.56,6.2,SE,21.9,-,N/A,Rain,Light Rain,130,2012-11-01 07:15:00
8:45 AM,50.0,46.4,87,29.56,6.2,SE,24.2,-,N/A,Rain,Light Rain,130,2012-11-01 07:45:00
9:15 AM,51.8,48.2,88,29.53,6.2,SE,23.0,-,N/A,,Overcast,130,2012-11-01 08:15:00
9:16 AM,51.8,48.2,88,29.53,-9999.0,SE,25.3,41.4,N/A,,Unknown,130,2012-11-01 08:16:00
9:17 AM,51.8,48.2,88,29.56,6.2,SE,24.2,40.3,N/A,,Overcast,130,2012-11-01 08:17:00
9:45 AM,53.6,48.2,82,29.53,-9999.0,SE,25.3,-,N/A,,Clear,130,2012-11-01 08:45:00
10:15 AM,53.6,48.2,82,29.50,-9999.0,SE,27.6,41.4,N/A,,Clear,130,2012-11-01 09:15:00
10:45 AM,53.6,48.2,82,29.50,6.2,SE,29.9,46.0,N/A,Rain,Light Rain,140,2012-11-01 09:45:00
11:15 AM,53.6,48.2,82,29.50,6.2,SE,25.3,-,N/A,Rain,Light Rain,140,2012-11-01 10:15:00
11:45 AM,53.6,50.0,88,29.50,6.2,SE,24.2,-,N/A,Rain,Light Rain,140,2012-11-01 10:45:00
12:15 PM,53.6,50.0,88,29.47,6.2,SE,25.3,36.8,N/A,Rain,Light Rain,140,2012-11-01 11:15:00
12:45 PM,53.6,50.0,88,29.47,6.2,SE,28.8,-,N/A,Rain,Light Rain,140,2012-11-01 11:45:00
1:00 PM,53,50,85,29.47,9,SE,26.8,,,Rain,Light Rain,140,2012-11-01 12:00:00
1:15 PM,53.6,50.0,88,29.47,6.2,SE,23.0,-,N/A,,Mostly Cloudy,140,2012-11-01 12:15:00
1:45 PM,55.4,50.0,82,29.47,6.2,SE,18.4,-,N/A,,Mostly Cloudy,140,2012-11-01 12:45:00
2:15 PM,57.2,50.0,77,29.47,6.2,SE,23.0,35.7,N/A,,Scattered Clouds,140,2012-11-01 13:15:00
2:45 PM,57.2,50.0,77,29.47,6.2,SE,28.8,41.4,N/A,,Scattered Clouds,140,2012-11-01 13:45:00
3:15 PM,57.2,50.0,77,29.44,6.2,SE,26.5,39.1,N/A,,Partly Cloudy,140,2012-11-01 14:15:00
3:45 PM,55.4,50.0,82,29.47,6.2,SE,19.6,-,N/A,,Scattered Clouds,140,2012-11-01 14:45:00
4:15 PM,55.4,50.0,82,29.47,-9999.0,SE,15.0,-,N/A,,Clear,140,2012-11-01 15:15:00
4:45 PM,55.4,48.2,77,29.47,-9999.0,SSE,13.8,-,N/A,,Clear,150,2012-11-01 15:45:00
5:15 PM,55.4,50.0,82,29.50,-9999.0,SSE,16.1,-,N/A,,Clear,160,2012-11-01 16:15:00
5:18 PM,55.4,50.0,82,29.50,-9999.0,South,18.4,-,N/A,,Unknown,170,2012-11-01 16:18:00
5:45 PM,53.6,50.0,88,29.50,6.2,South,18.4,-,N/A,Rain,Light Rain,170,2012-11-01 16:45:00
6:15 PM,53.6,50.0,88,29.53,6.2,SSE,16.1,-,N/A,Rain,Light Rain,160,2012-11-01 17:15:00
6:45 PM,53.6,50.0,88,29.53,6.2,SSE,13.8,-,N/A,,Overcast,160,2012-11-01 17:45:00
7:00 PM,53,51,88,29.53,9,SSE,13.4,,,Rain,Light Rain,160,2012-11-01 18:00:00
7:15 PM,53.6,50.0,88,29.53,-9999.0,SSE,16.1,-,N/A,,Clear,160,2012-11-01 18:15:00
7:45 PM,51.8,50.0,94,29.53,-9999.0,South,13.8,-,N/A,,Clear,170,2012-11-01 18:45:00
8:15 PM,51.8,50.0,94,29.56,-9999.0,South,13.8,-,N/A,,Clear,180,2012-11-01 19:15:00
8:45 PM,51.8,50.0,94,29.56,-9999.0,South,6.9,-,N/A,,Clear,170,2012-11-01 19:45:00
9:45 PM,50.0,48.2,94,29.59,-9999.0,South,5.8,-,N/A,,Clear,180,2012-11-01 20:45:00
10:45 PM,48.2,48.2,100,29.59,-9999.0,SSE,6.9,-,N/A,,Clear,160,2012-11-01 21:45:00
11:45 PM,48.2,48.2,100,29.62,-9999.0,SSE,6.9,-,N/A,,Clear,160,2012-11-01 22:45:00